Wetterdaten aus der Harmsstraße 54 in 24114 Kiel (4. OG, außen), die per BME280 und einem ESP-32 erhoben werden.
Unter https://wetter.janbpunkt.de/weather.xml steht eine entsprechende XML bereit, die das jüngste Messergebnis enthält.
Da der weatherino ab und zu ausfällt/gewartet wird, können Messpunkte fehlen.
Keine Garantie auf Korrektheit der Werte. Keine Haftung für direkte oder indirekte Schäden, die aus der Verwendung der Daten resultieren. Die Daten der Website werden per SSL verschlüsselt übertragen, es werden keine Cookies gesetzt und keine IP-Adressen geloggt. Weiterhin findet keine Verarbeitung von personenbezogenen Daten statt.
Mehr zu dem Projekt findet man hier.
Impressum| Zeitpunkt | Temperatur | Luftfeuchte | Luftdruck |
|---|---|---|---|
| 2026-09-06 07:53:27 | 19.13 ℃ | 100 % | 1023.74 hPa |
| Zeitpunkt | Temperatur | Luftfeuchte | Luftdruck |
|---|---|---|---|
| 2026-09-06 07:53:27 | 19.13 ℃ | 100 % | 1023.74 hPa |
| 2026-09-06 07:43:27 | 18.95 ℃ | 100 % | 1023.62 hPa |
| 2026-09-06 07:33:27 | 18.32 ℃ | 100 % | 1023.57 hPa |
| 2026-09-06 07:23:27 | 17.86 ℃ | 100 % | 1023.44 hPa |
| 2026-09-06 07:13:27 | 17.52 ℃ | 100 % | 1023.38 hPa |
| 2026-09-06 07:03:27 | 17.09 ℃ | 100 % | 1023.3 hPa |
| 2026-09-06 06:53:27 | 16.88 ℃ | 100 % | 1023.25 hPa |
| 2026-09-06 06:43:27 | 16.87 ℃ | 100 % | 1023.18 hPa |
| 2026-09-06 06:33:27 | 16.93 ℃ | 100 % | 1023.14 hPa |
| 2026-09-06 06:23:27 | 16.86 ℃ | 100 % | 1023.09 hPa |
| 2026-09-06 06:13:27 | 16.72 ℃ | 100 % | 1023.01 hPa |
| 2026-09-06 06:03:27 | 17.05 ℃ | 100 % | 1022.87 hPa |
| 2026-09-06 05:53:27 | 17.09 ℃ | 100 % | 1022.82 hPa |
| 2026-09-06 05:43:27 | 17.11 ℃ | 100 % | 1022.74 hPa |
| 2026-09-06 05:33:27 | 17.03 ℃ | 100 % | 1022.65 hPa |
| 2026-09-06 05:23:27 | 17.01 ℃ | 100 % | 1022.56 hPa |
| 2026-09-06 05:13:27 | 17.25 ℃ | 100 % | 1022.47 hPa |
| 2026-09-06 05:03:27 | 17.46 ℃ | 100 % | 1022.44 hPa |
| 2026-09-06 04:53:27 | 17.45 ℃ | 100 % | 1022.41 hPa |
| 2026-09-06 04:43:27 | 17.26 ℃ | 100 % | 1022.37 hPa |
| 2026-09-06 04:33:27 | 17.3 ℃ | 100 % | 1022.31 hPa |
| 2026-09-06 04:23:27 | 17.34 ℃ | 100 % | 1022.26 hPa |
| 2026-09-06 04:13:27 | 17.49 ℃ | 100 % | 1022.13 hPa |
| 2026-09-06 04:03:27 | 17.65 ℃ | 100 % | 1022.02 hPa |
| 2026-09-06 03:53:27 | 17.69 ℃ | 100 % | 1021.93 hPa |
| 2026-09-06 03:43:27 | 17.49 ℃ | 100 % | 1021.83 hPa |
| 2026-09-06 03:33:27 | 17.1 ℃ | 100 % | 1021.77 hPa |
| 2026-09-06 03:23:27 | 16.67 ℃ | 100 % | 1021.73 hPa |
| 2026-09-06 03:13:27 | 17.56 ℃ | 100 % | 1021.53 hPa |
| 2026-09-06 03:03:27 | 17.34 ℃ | 100 % | 1021.48 hPa |
| 2026-09-06 02:53:27 | 17.34 ℃ | 100 % | 1021.4 hPa |
| 2026-09-06 02:43:27 | 17.36 ℃ | 100 % | 1021.39 hPa |
| 2026-09-06 02:33:27 | 17.45 ℃ | 100 % | 1021.29 hPa |
| 2026-09-06 02:23:28 | 17.47 ℃ | 100 % | 1021.19 hPa |
| 2026-09-06 02:13:28 | 17.53 ℃ | 100 % | 1021.13 hPa |
| 2026-09-06 02:03:27 | 17.62 ℃ | 100 % | 1021.06 hPa |
| 2026-09-06 01:53:27 | 17.89 ℃ | 100 % | 1020.97 hPa |
| 2026-09-06 01:43:27 | 17.66 ℃ | 100 % | 1020.93 hPa |
| 2026-09-06 01:33:27 | 17.76 ℃ | 100 % | 1020.81 hPa |
| 2026-09-06 01:23:27 | 17.67 ℃ | 100 % | 1020.79 hPa |
| 2026-09-06 01:13:27 | 17.59 ℃ | 100 % | 1020.71 hPa |
| 2026-09-06 01:03:28 | 17.5 ℃ | 100 % | 1020.66 hPa |
| 2026-09-06 00:53:27 | 17.58 ℃ | 100 % | 1020.55 hPa |
| 2026-09-06 00:43:27 | 17.46 ℃ | 100 % | 1020.47 hPa |
| 2026-09-06 00:33:27 | 17.32 ℃ | 100 % | 1020.44 hPa |
| 2026-09-06 00:23:27 | 17.62 ℃ | 100 % | 1020.44 hPa |
| 2026-09-06 00:13:28 | 17.7 ℃ | 100 % | 1020.38 hPa |
| 2026-09-06 00:03:28 | 17.67 ℃ | 100 % | 1020.31 hPa |
| 2026-09-05 23:53:27 | 17.61 ℃ | 100 % | 1020.22 hPa |
| 2026-09-05 23:43:28 | 17.84 ℃ | 100 % | 1020.13 hPa |
| 2026-09-05 23:33:27 | 17.84 ℃ | 100 % | 1020.04 hPa |
| 2026-09-05 23:23:27 | 17.7 ℃ | 100 % | 1019.94 hPa |
| 2026-09-05 23:13:27 | 17.58 ℃ | 100 % | 1019.78 hPa |
| 2026-09-05 23:03:27 | 17.75 ℃ | 100 % | 1019.56 hPa |
| 2026-09-05 22:53:28 | 18 ℃ | 100 % | 1019.4 hPa |
| 2026-09-05 22:43:27 | 17.94 ℃ | 100 % | 1019.28 hPa |
| 2026-09-05 22:33:28 | 17.96 ℃ | 100 % | 1019.17 hPa |
| 2026-09-05 22:23:28 | 18.18 ℃ | 100 % | 1019.04 hPa |
| 2026-09-05 22:13:28 | 18.22 ℃ | 100 % | 1018.95 hPa |
| 2026-09-05 22:03:28 | 18.39 ℃ | 100 % | 1018.88 hPa |
| 2026-09-05 21:53:28 | 18.71 ℃ | 100 % | 1018.84 hPa |
| 2026-09-05 21:43:28 | 18.55 ℃ | 100 % | 1018.77 hPa |
| 2026-09-05 21:33:28 | 18.47 ℃ | 100 % | 1018.64 hPa |
| 2026-09-05 21:23:28 | 18.35 ℃ | 100 % | 1018.49 hPa |
| 2026-09-05 21:13:28 | 18.24 ℃ | 100 % | 1018.35 hPa |
| 2026-09-05 21:03:28 | 18.68 ℃ | 100 % | 1018.28 hPa |
| 2026-09-05 20:53:28 | 18.61 ℃ | 100 % | 1018.2 hPa |
| 2026-09-05 20:43:28 | 18.77 ℃ | 100 % | 1018.13 hPa |
| 2026-09-05 20:33:28 | 18.6 ℃ | 100 % | 1018.02 hPa |
| 2026-09-05 20:23:28 | 18.75 ℃ | 100 % | 1017.9 hPa |
| 2026-09-05 20:13:28 | 18.86 ℃ | 100 % | 1017.71 hPa |
| 2026-09-05 20:03:28 | 19.02 ℃ | 100 % | 1017.58 hPa |
| 2026-09-05 19:53:28 | 18.87 ℃ | 100 % | 1017.51 hPa |
| 2026-09-05 19:43:29 | 18.82 ℃ | 100 % | 1017.37 hPa |
| 2026-09-05 19:33:28 | 18.78 ℃ | 100 % | 1017.32 hPa |
| 2026-09-05 19:23:28 | 18.81 ℃ | 100 % | 1017.28 hPa |
| 2026-09-05 19:13:28 | 18.82 ℃ | 100 % | 1017.16 hPa |
| 2026-09-05 19:03:28 | 19.13 ℃ | 100 % | 1017.04 hPa |
| 2026-09-05 18:53:28 | 19.33 ℃ | 100 % | 1016.91 hPa |
| 2026-09-05 18:43:28 | 19.31 ℃ | 100 % | 1016.7 hPa |
| 2026-09-05 18:33:28 | 19.41 ℃ | 100 % | 1016.44 hPa |
| 2026-09-05 18:23:28 | 19.54 ℃ | 100 % | 1016.3 hPa |
| 2026-09-05 18:13:28 | 19.79 ℃ | 100 % | 1016.09 hPa |
| 2026-09-05 18:03:28 | 19.95 ℃ | 100 % | 1015.83 hPa |
| 2026-09-05 17:53:28 | 19.97 ℃ | 100 % | 1015.69 hPa |
| 2026-09-05 17:43:28 | 19.95 ℃ | 100 % | 1015.58 hPa |
| 2026-09-05 17:33:28 | 19.37 ℃ | 100 % | 1015.52 hPa |
| 2026-09-05 17:23:28 | 19.47 ℃ | 100 % | 1015.41 hPa |
| 2026-09-05 17:13:28 | 19.15 ℃ | 100 % | 1015.33 hPa |
| 2026-09-05 17:03:28 | 19.38 ℃ | 100 % | 1015.25 hPa |
| 2026-09-05 16:53:28 | 19.72 ℃ | 100 % | 1015.09 hPa |
| 2026-09-05 16:43:28 | 20.37 ℃ | 100 % | 1014.82 hPa |
| 2026-09-05 16:33:28 | 20.36 ℃ | 100 % | 1014.76 hPa |
| 2026-09-05 16:23:28 | 20.26 ℃ | 100 % | 1014.68 hPa |
| 2026-09-05 16:13:29 | 20.26 ℃ | 100 % | 1014.59 hPa |
| 2026-09-05 16:03:28 | 20.46 ℃ | 100 % | 1014.45 hPa |
| 2026-09-05 15:53:28 | 20.38 ℃ | 100 % | 1014.34 hPa |
| 2026-09-05 15:43:28 | 20.14 ℃ | 100 % | 1014.22 hPa |
| 2026-09-05 15:33:28 | 20.67 ℃ | 100 % | 1014.02 hPa |
| 2026-09-05 15:23:29 | 20.97 ℃ | 100 % | 1013.84 hPa |
| 2026-09-05 15:13:28 | 21.35 ℃ | 100 % | 1013.68 hPa |
| 2026-09-05 15:03:28 | 21.23 ℃ | 100 % | 1013.48 hPa |
| 2026-09-05 14:53:28 | 20.96 ℃ | 100 % | 1013.38 hPa |
| 2026-09-05 14:43:28 | 20.62 ℃ | 100 % | 1013.37 hPa |
| 2026-09-05 14:33:29 | 20.3 ℃ | 100 % | 1013.36 hPa |
| 2026-09-05 14:23:28 | 20.22 ℃ | 100 % | 1013.28 hPa |
| 2026-09-05 14:13:28 | 19.98 ℃ | 100 % | 1013.26 hPa |
| 2026-09-05 14:03:28 | 20.04 ℃ | 100 % | 1013.18 hPa |
| 2026-09-05 13:53:29 | 19.96 ℃ | 100 % | 1013.11 hPa |
| 2026-09-05 13:43:28 | 19.8 ℃ | 100 % | 1013.02 hPa |
| 2026-09-05 13:33:28 | 19.95 ℃ | 100 % | 1012.85 hPa |
| 2026-09-05 13:23:28 | 19.7 ℃ | 100 % | 1012.79 hPa |
| 2026-09-05 13:13:28 | 20.21 ℃ | 100 % | 1012.68 hPa |
| 2026-09-05 13:03:29 | 21.42 ℃ | 100 % | 1012.29 hPa |
| 2026-09-05 12:53:29 | 21.79 ℃ | 100 % | 1011.99 hPa |
| 2026-09-05 12:43:28 | 21.77 ℃ | 100 % | 1011.92 hPa |
| 2026-09-05 12:33:28 | 20.95 ℃ | 100 % | 1011.89 hPa |
| 2026-09-05 12:23:28 | 20.57 ℃ | 100 % | 1011.75 hPa |
| 2026-09-05 12:13:29 | 20.61 ℃ | 100 % | 1011.58 hPa |
| 2026-09-05 12:03:29 | 21.35 ℃ | 100 % | 1011.46 hPa |
| 2026-09-05 11:53:29 | 21.79 ℃ | 100 % | 1011.29 hPa |
| 2026-09-05 11:43:28 | 21.52 ℃ | 100 % | 1011.04 hPa |
| 2026-09-05 11:33:29 | 21.55 ℃ | 100 % | 1010.92 hPa |
| 2026-09-05 11:23:29 | 22.01 ℃ | 100 % | 1010.95 hPa |
| 2026-09-05 11:13:28 | 22.31 ℃ | 100 % | 1010.96 hPa |
| 2026-09-05 11:03:29 | 22.33 ℃ | 100 % | 1010.99 hPa |
| 2026-09-05 10:53:28 | 22.44 ℃ | 100 % | 1011 hPa |
| 2026-09-05 10:43:28 | 22.07 ℃ | 100 % | 1010.99 hPa |
| 2026-09-05 10:33:28 | 22.07 ℃ | 100 % | 1010.89 hPa |
| 2026-09-05 10:23:29 | 21.87 ℃ | 100 % | 1010.9 hPa |
| 2026-09-05 10:13:29 | 21.44 ℃ | 100 % | 1010.83 hPa |
| 2026-09-05 10:03:29 | 21.35 ℃ | 100 % | 1010.78 hPa |
| 2026-09-05 09:53:29 | 21.18 ℃ | 100 % | 1010.74 hPa |
| 2026-09-05 09:43:30 | 21.14 ℃ | 100 % | 1010.67 hPa |
| 2026-09-05 09:33:29 | 21.12 ℃ | 100 % | 1010.59 hPa |
| 2026-09-05 09:23:29 | 21.43 ℃ | 100 % | 1010.56 hPa |
| 2026-09-05 09:13:29 | 21.54 ℃ | 100 % | 1010.52 hPa |
| 2026-09-05 09:03:29 | 21.6 ℃ | 100 % | 1010.46 hPa |
| 2026-09-05 08:53:29 | 21.31 ℃ | 100 % | 1010.43 hPa |
| 2026-09-05 08:43:29 | 20.89 ℃ | 100 % | 1010.44 hPa |
| 2026-09-05 08:33:29 | 20.64 ℃ | 100 % | 1010.38 hPa |
| 2026-09-05 08:23:29 | 20.41 ℃ | 100 % | 1010.37 hPa |
| 2026-09-05 08:13:29 | 19.76 ℃ | 100 % | 1010.33 hPa |
| 2026-09-05 08:03:29 | 19.73 ℃ | 100 % | 1010.21 hPa |
| Durchschnitt | 19.13 ℃ | 100 % | 1017.07 hPa |
Nachfolgend die Extremwerte seit Aufzeichnung.
| Bezeichnung | Wert | Zeitpunkt |
|---|---|---|
| Niedrigste Temperatur | 0.01 ℃ | 2021-01-30 04:41:27 |
| Höchste Temperatur | 39.16 ℃ | 2026-07-30 15:18:47 |
| Niedrigster Luftdruck | 973.38 hPa | 2021-12-01 19:37:42 |
| Höchster Luftdruck | 1089.17 hPa | 2026-03-11 22:53:40 |
| Niedrigste Luftfeuchtigkeit | 22.3 % | 2020-04-13 15:26:13 |
| Höchste Luftfeuchtigkeit | 100 % | 2026-09-06 07:53:27 |